Time,TemperatureF,DewpointF,PressureIn,WindDirection,WindDirectionDegrees,WindSpeedMPH,WindSpeedGustMPH,Humidity,HourlyPrecipIn,Conditions,Clouds,dailyrainin,SoftwareType,DateUTC
2013-08-06 00:02:00,66.0,-99.9,-100.00,NW,314,2.0,-999.0,-999,-99.99,,,-99.99,,2013-08-06 07:02:00,
2013-08-06 00:12:00,66.0,-99.9,-100.00,NW,314,2.0,-999.0,-999,-99.99,,,-99.99,,2013-08-06 07:12:00,
2013-08-06 00:20:00,65.0,-99.9,-100.00,West,267,3.0,-999.0,-999,-99.99,,,-99.99,,2013-08-06 07:20:00,
2013-08-06 01:02:00,65.0,-99.9,-100.00,West,267,3.0,-999.0,-999,-99.99,,,-99.99,,2013-08-06 08:02:00,
2013-08-06 01:11:00,65.0,-99.9,-100.00,West,267,3.0,-999.0,-999,-99.99,,,-99.99,,2013-08-06 08:11:00,
2013-08-06 01:20:00,63.0,-99.9,-100.00,SW,232,3.0,-999.0,-999,-99.99,,,-99.99,,2013-08-06 08:20:00,
2013-08-06 02:02:00,63.0,-99.9,-100.00,SW,232,3.0,-999.0,-999,-99.99,,,-99.99,,2013-08-06 09:02:00,
2013-08-06 02:12:00,63.0,-99.9,-100.00,SW,232,3.0,-999.0,-999,-99.99,,,-99.99,,2013-08-06 09:12:00,
2013-08-06 02:20:00,61.0,-99.9,-100.00,SW,235,1.0,-999.0,-999,-99.99,,,-99.99,,2013-08-06 09:20:00,
2013-08-06 03:02:00,61.0,-99.9,-100.00,SW,235,1.0,-999.0,-999,-99.99,,,-99.99,,2013-08-06 10:02:00,
2013-08-06 03:12:00,61.0,-99.9,-100.00,SW,235,1.0,-999.0,-999,-99.99,,,-99.99,,2013-08-06 10:12:00,
2013-08-06 03:20:00,59.0,-99.9,-100.00,WSW,257,2.0,-999.0,-999,-99.99,,,-99.99,,2013-08-06 10:20:00,
2013-08-06 04:11:00,59.0,-99.9,-100.00,WSW,257,2.0,-999.0,-999,-99.99,,,-99.99,,2013-08-06 11:11:00,
2013-08-06 04:20:00,58.0,-99.9,-100.00,WSW,244,2.0,-999.0,-999,-99.99,,,-99.99,,2013-08-06 11:20:00,
2013-08-06 05:02:00,58.0,-99.9,-100.00,WSW,244,2.0,-999.0,-999,-99.99,,,-99.99,,2013-08-06 12:02:00,
2013-08-06 05:12:00,58.0,-99.9,-100.00,WSW,244,2.0,-999.0,-999,-99.99,,,-99.99,,2013-08-06 12:12:00,
2013-08-06 05:20:00,57.0,-99.9,-100.00,West,265,2.0,-999.0,-999,-99.99,,,-99.99,,2013-08-06 12:20:00,
2013-08-06 06:02:00,57.0,-99.9,-100.00,West,265,2.0,-999.0,-999,-99.99,,,-99.99,,2013-08-06 13:02:00,
2013-08-06 06:11:00,57.0,-99.9,-100.00,West,265,2.0,-999.0,-999,-99.99,,,-99.99,,2013-08-06 13:11:00,
2013-08-06 06:20:00,56.0,-99.9,-100.00,West,278,3.0,-999.0,-999,-99.99,,,-99.99,,2013-08-06 13:20:00,
2013-08-06 07:11:00,56.0,-99.9,-100.00,West,278,3.0,-999.0,-999,-99.99,,,-99.99,,2013-08-06 14:11:00,
2013-08-06 07:20:00,58.0,-99.9,-100.00,SE,138,2.0,-999.0,-999,-99.99,,,-99.99,,2013-08-06 14:20:00,
2013-08-06 08:12:00,58.0,-99.9,-100.00,SE,138,2.0,-999.0,-999,-99.99,,,-99.99,,2013-08-06 15:12:00,
2013-08-06 08:20:00,60.0,-99.9,-100.00,East,94,5.0,-999.0,-999,-99.99,,,-99.99,,2013-08-06 15:20:00,
2013-08-06 09:11:00,60.0,-99.9,-100.00,East,94,5.0,-999.0,-999,-99.99,,,-99.99,,2013-08-06 16:11:00,
2013-08-06 09:20:00,62.0,-99.9,-100.00,East,95,5.0,-999.0,-999,-99.99,,,-99.99,,2013-08-06 16:20:00,
2013-08-06 10:11:00,62.0,-99.9,-100.00,East,95,5.0,-999.0,-999,-99.99,,,-99.99,,2013-08-06 17:11:00,
2013-08-06 10:20:00,61.0,-99.9,-100.00,East,89,8.0,-999.0,-999,-99.99,,,-99.99,,2013-08-06 17:20:00,
2013-08-06 11:02:00,61.0,-99.9,-100.00,East,89,8.0,-999.0,-999,-99.99,,,-99.99,,2013-08-06 18:02:00,
2013-08-06 11:11:00,61.0,-99.9,-100.00,East,89,8.0,-999.0,-999,-99.99,,,-99.99,,2013-08-06 18:11:00,
2013-08-06 11:20:00,64.0,-99.9,-100.00,East,98,7.0,-999.0,-999,-99.99,,,-99.99,,2013-08-06 18:20:00,
2013-08-06 12:11:00,64.0,-99.9,-100.00,East,98,7.0,-999.0,-999,-99.99,,,-99.99,,2013-08-06 19:11:00,
2013-08-06 12:20:00,66.0,-99.9,-100.00,East,97,6.0,-999.0,-999,-99.99,,,-99.99,,2013-08-06 19:20:00,
2013-08-06 13:20:00,71.0,-99.9,-100.00,ESE,120,1.0,-999.0,-999,-99.99,,,-99.99,,2013-08-06 20:20:00,
2013-08-06 14:12:00,71.0,-99.9,-100.00,ESE,120,1.0,-999.0,-999,-99.99,,,-99.99,,2013-08-06 21:12:00,
2013-08-06 14:20:00,71.0,-99.9,-100.00,East,83,5.0,-999.0,-999,-99.99,,,-99.99,,2013-08-06 21:20:00,
2013-08-06 15:12:00,71.0,-99.9,-100.00,East,83,5.0,-999.0,-999,-99.99,,,-99.99,,2013-08-06 22:12:00,
2013-08-06 15:20:00,78.0,-99.9,-100.00,East,86,5.0,-999.0,-999,-99.99,,,-99.99,,2013-08-06 22:20:00,
2013-08-06 16:11:00,78.0,-99.9,-100.00,East,86,5.0,-999.0,-999,-99.99,,,-99.99,,2013-08-06 23:11:00,
2013-08-06 16:20:00,76.0,-99.9,-100.00,NNE,12,6.0,-999.0,-999,-99.99,,,-99.99,,2013-08-06 23:20:00,
2013-08-06 17:01:00,76.0,-99.9,-100.00,NNE,12,6.0,-999.0,-999,-99.99,,,-99.99,,2013-08-07 00:01:00,
2013-08-06 17:11:00,76.0,-99.9,-100.00,NNE,12,6.0,-999.0,-999,-99.99,,,-99.99,,2013-08-07 00:11:00,
2013-08-06 17:20:00,75.0,-99.9,-100.00,North,354,13.0,-999.0,-999,-99.99,,,-99.99,,2013-08-07 00:20:00,
2013-08-06 18:11:00,75.0,-99.9,-100.00,North,354,13.0,-999.0,-999,-99.99,,,-99.99,,2013-08-07 01:11:00,
2013-08-06 18:20:00,75.0,-99.9,-100.00,NNW,343,15.0,-999.0,-999,-99.99,,,-99.99,,2013-08-07 01:20:00,
2013-08-06 19:12:00,75.0,-99.9,-100.00,NNW,343,15.0,-999.0,-999,-99.99,,,-99.99,,2013-08-07 02:12:00,
2013-08-06 19:20:00,74.0,-99.9,-100.00,NNW,340,10.0,-999.0,-999,-99.99,,,-99.99,,2013-08-07 02:20:00,
2013-08-06 20:12:00,74.0,-99.9,-100.00,NNW,340,10.0,-999.0,-999,-99.99,,,-99.99,,2013-08-07 03:12:00,
2013-08-06 20:20:00,70.0,-99.9,-100.00,North,9,0.0,-999.0,-999,-99.99,,,-99.99,,2013-08-07 03:20:00,
2013-08-06 21:11:00,70.0,-99.9,-100.00,North,9,0.0,-999.0,-999,-99.99,,,-99.99,,2013-08-07 04:11:00,
2013-08-06 21:20:00,66.0,-99.9,-100.00,WSW,237,1.0,-999.0,-999,-99.99,,,-99.99,,2013-08-07 04:20:00,
2013-08-06 22:02:00,66.0,-99.9,-100.00,WSW,237,1.0,-999.0,-999,-99.99,,,-99.99,,2013-08-07 05:02:00,
2013-08-06 22:11:00,66.0,-99.9,-100.00,WSW,237,1.0,-999.0,-999,-99.99,,,-99.99,,2013-08-07 05:11:00,
2013-08-06 22:20:00,66.0,-99.9,-100.00,ESE,114,1.0,-999.0,-999,-99.99,,,-99.99,,2013-08-07 05:20:00,
2013-08-06 23:12:00,66.0,-99.9,-100.00,ESE,114,1.0,-999.0,-999,-99.99,,,-99.99,,2013-08-07 06:12:00,
2013-08-06 23:20:00,64.0,-99.9,-100.00,WSW,250,1.0,-999.0,-999,-99.99,,,-99.99,,2013-08-07 06:20:00,